ROMMA est une association bénévole à but non lucratif. Votre soutien est indispensable : ADHERER à ROMMA ou FAIRE un DON

Val-d'Arly - (73, Savoie)

Beaufortain (2050 m)   Longitude: 06° 35' 21" E   Latitude: 45° 46' 53" N Station romma n°118
 

Détail journalier du     <<     >>

Température Precipitation Humidité Vent Dir Rafale Dir. rafale Ensol.
Heure (°C) (mm) (%) (km/h) (km/h) (min)
01:00 8.00923SSO6SSO0
02:00 7.90922SSO3SSO0
03:00
04:00
05:00 8.20875O10O0
06:00 8.00885NE13ENE0
07:00 8.90838NE15SE30
08:00 10.30824ENE11ESE50
09:00 10.20813E6E50
10:00 10.30815E13E40
11:00 10.30895ENE11ESE40
12:00 11.20814NE15NE30
13:00 12.50748NE19NE40
14:00 13.107312NE26ENE20
15:00 12.907612NE23ENE0
16:00 13.207913NE24NNE20
17:00 13.307613NE21NNE0
18:00 13.607417NE27NE60
19:00 12.907115NE26NNE20
20:00 12.707111N19N10
21:00 12.20658NNE18NNE40
22:00 11.80693NNE8NNE0
23:00 11.60617SE15SE0
minuit 11.50607SE15SE0

Graphique du 16-07-2019

 

Serveur OMMA